Location: Bethune
(34.4150°N, 80.3490°W)
Time: 03:27:40
(UTC-04:00)

ISS - Visible Passes

Search period start: 16 October 2019 00:00
Search period end: 26 October 2019 00:00
Orbit: 411 x 421 km, 51.6° (Epoch: 16 October)

Date Brightness Start Highest point End Pass type
(mag) Time Alt. Az. Time Alt. Az. Time Alt. Az.
20 Oct -0.4 07:00:56 10° SSE 07:02:23 12° SE 07:03:52 10° E visible
22 Oct -2.3 06:58:32 10° SSW 07:01:43 40° SE 07:04:53 10° ENE visible
23 Oct -1.2 06:10:40 10° S 06:13:16 21° SE 06:15:53 10° ENE visible
24 Oct -0.6 05:23:59 10° SE 05:24:53 11° SE 05:25:55 10° ESE visible
24 Oct -3.6 06:57:55 10° WSW 07:01:14 55° NW 07:04:32 10° NE visible
25 Oct -3.7 06:11:27 36° SSW 06:12:40 75° SE 06:16:02 10° NE visible
